| time (UTC) | temp F | wind direction | speed MPH | gust MPH | rain 1hr in | rain 24hr in | rain mn in | humidity % | barometer mb |
| 20260509043518 | 48 | 119 | 3.0 | 6.0 | 0.00 | 0.00 | 0.00 | 63 | 1004.8 |
| 20260509043017 | 48 | 133 | 2.0 | 5.0 | 0.00 | 0.00 | 0.00 | 60 | 1004.7 |
| 20260509042517 | 49 | 159 | 2.0 | 7.0 | 0.00 | 0.00 | 0.00 | 59 | 1004.9 |
| 20260509041518 | 50 | 76 | 5.0 | 8.0 | 0.00 | 0.00 | 0.00 | 55 | 1004.8 |
| 20260509040516 | 50 | 154 | 3.0 | 7.0 | 0.00 | 0.00 | 0.00 | 52 | 1004.5 |
| 20260509040015 | 50 | 130 | 2.0 | 8.0 | 0.00 | 0.00 | 0.00 | 53 | 1004.3 |
| 20260509035511 | 50 | 133 | 3.0 | 8.0 | 0.00 | 0.00 | 0.00 | 53 | 1004.6 |
| 20260509035011 | 50 | 117 | 0.0 | 5.0 | 0.00 | 0.00 | 0.00 | 53 | 1004.7 |
| 20260509034010 | 49 | 242 | 3.0 | 6.0 | 0.00 | 0.00 | 0.00 | 51 | 1004.3 |
| 20260509033511 | 50 | 84 | 0.0 | 4.0 | 0.00 | 0.00 | 0.00 | 52 | 1004.3 |
| 20260509033009 | 50 | 98 | 0.0 | 3.0 | 0.00 | 0.00 | 0.00 | 48 | 1004.1 |
| 20260509032009 | 50 | 172 | 0.0 | 2.0 | 0.00 | 0.00 | 0.00 | 45 | 1004.0 |
| 20260509031509 | 50 | 203 | 1.0 | 2.0 | 0.00 | 0.00 | 0.00 | 45 | 1003.4 |
| 20260509031011 | 49 | 180 | 1.0 | 1.0 | 0.00 | 0.00 | 0.00 | 47 | 1003.3 |
| 20260509030510 | 47 | 154 | 0.0 | 2.0 | 0.00 | 0.00 | 0.00 | 53 | 1003.4 |
| 20260509030010 | 47 | 154 | 0.0 | 2.0 | 0.00 | 0.00 | 0.00 | 52 | 1003.2 |
| 20260509025509 | 47 | 90 | 0.0 | 1.0 | 0.00 | 0.00 | 0.00 | 54 | 1003.2 |
| 20260509025009 | 47 | 81 | 0.0 | 0.0 | 0.00 | 0.00 | 0.00 | 53 | 1003.0 |
| 20260509024010 | 47 | 81 | 0.0 | 0.0 | 0.00 | 0.00 | 0.00 | 48 | 1002.9 |
| 20260509023012 | 47 | 81 | 0.0 | 0.0 | 0.00 | 0.00 | 0.00 | 49 | 1002.9 |
| 20260509022011 | 47 | 81 | 0.0 | 1.0 | 0.00 | 0.00 | 0.00 | 49 | 1002.9 |
| 20260509021012 | 48 | 99 | 0.0 | 1.0 | 0.00 | 0.00 | 0.00 | 49 | 1002.7 |
| 20260509020510 | 48 | 81 | 0.0 | 0.0 | 0.00 | 0.00 | 0.00 | 48 | 1002.5 |
| 20260509020003 | 48 | 172 | 0.0 | 0.0 | 0.00 | 0.00 | 0.00 | 46 | 1002.4 |
| 20260509015503 | 49 | 172 | 0.0 | 0.0 | 0.00 | 0.00 | 0.00 | 46 | 1002.5 |
| 20260509015001 | 49 | 172 | 0.0 | 0.0 | 0.00 | 0.00 | 0.00 | 46 | 1002.6 |
| 20260509014504 | 50 | 172 | 0.0 | 0.0 | 0.00 | 0.00 | 0.00 | 45 | 1002.8 |
| 20260509014001 | 50 | 172 | 0.0 | 0.0 | 0.00 | 0.00 | 0.00 | 44 | 1002.6 |
| 20260509013500 | 51 | 172 | 0.0 | 0.0 | 0.00 | 0.00 | 0.00 | 43 | 1002.6 |
| 20260509013001 | 52 | 172 | 0.0 | 0.0 | 0.00 | 0.00 | 0.00 | 42 | 1002.7 |
| 20260509012501 | 53 | 172 | 0.0 | 0.0 | 0.00 | 0.00 | 0.00 | 41 | 1002.7 |
| 20260509012003 | 53 | 172 | 0.0 | 1.0 | 0.00 | 0.00 | 0.00 | 40 | 1002.6 |
| 20260509011501 | 54 | 172 | 0.0 | 2.0 | 0.00 | 0.00 | 0.00 | 38 | 1002.8 |
| 20260509011001 | 55 | 165 | 1.0 | 2.0 | 0.00 | 0.00 | 0.00 | 38 | 1002.7 |
| 20260509010502 | 55 | 90 | 1.0 | 3.0 | 0.00 | 0.00 | 0.00 | 38 | 1002.8 |
| 20260509010001 | 55 | 165 | 0.0 | 7.0 | 0.00 | 0.00 | 0.00 | 37 | 1002.7 |
| 20260509005501 | 56 | 180 | 2.0 | 7.0 | 0.00 | 0.00 | 0.00 | 36 | 1002.8 |
| 20260509005003 | 56 | 138 | 3.0 | 7.0 | 0.00 | 0.00 | 0.00 | 35 | 1002.7 |
| 20260509004501 | 57 | 102 | 2.0 | 5.0 | 0.00 | 0.00 | 0.00 | 35 | 1002.8 |
| 20260509004003 | 58 | 102 | 2.0 | 5.0 | 0.00 | 0.00 | 0.00 | 34 | 1002.8 |
| 20260509003001 | 58 | 132 | 4.0 | 6.0 | 0.00 | 0.00 | 0.00 | 34 | 1002.9 |
| 20260509002525 | 59 | 165 | 0.0 | 6.0 | 0.00 | 0.00 | 0.00 | 34 | 1003.0 |
| 20260509002002 | 59 | 150 | 3.0 | 6.0 | 0.00 | 0.00 | 0.00 | 33 | 1002.9 |
| 20260509001501 | 59 | 180 | 1.0 | 7.0 | 0.00 | 0.00 | 0.00 | 33 | 1003.1 |
| 20260509001002 | 59 | 201 | 2.0 | 7.0 | 0.00 | 0.00 | 0.00 | 32 | 1002.9 |
| 20260509000500 | 59 | 96 | 3.0 | 9.0 | 0.00 | 0.00 | 0.00 | 32 | 1002.9 |
| 20260509000001 | 59 | 188 | 2.0 | 9.0 | 0.00 | 0.00 | 0.00 | 33 | 1003.0 |
| 20260508235504 | 60 | 139 | 2.0 | 7.0 | 0.00 | 0.00 | 0.00 | 32 | 1003.0 |
| 20260508234503 | 60 | 217 | 2.0 | 7.0 | 0.00 | 0.00 | 0.00 | 32 | 1003.1 |
| 20260508233004 | 61 | 154 | 2.0 | 9.0 | 0.00 | 0.00 | 0.00 | 33 | 1003.2 |
| 20260508232502 | 61 | 188 | 3.0 | 8.0 | 0.00 | 0.00 | 0.00 | 33 | 1003.3 |
| 20260508232005 | 62 | 164 | 3.0 | 6.0 | 0.00 | 0.00 | 0.00 | 33 | 1003.3 |
| 20260508231505 | 62 | 169 | 3.0 | 9.0 | 0.00 | 0.00 | 0.00 | 33 | 1003.4 |
| 20260508231004 | 62 | 128 | 2.0 | 9.0 | 0.00 | 0.00 | 0.00 | 33 | 1003.3 |
| 20260508230003 | 62 | 173 | 2.0 | 9.0 | 0.00 | 0.00 | 0.00 | 32 | 1003.4 |
| 20260508225503 | 61 | 168 | 2.0 | 7.0 | 0.00 | 0.00 | 0.00 | 33 | 1003.5 |
| 20260508225005 | 61 | 195 | 3.0 | 12.0 | 0.00 | 0.00 | 0.00 | 32 | 1003.5 |
| 20260508224507 | 61 | 159 | 0.0 | 12.0 | 0.00 | 0.00 | 0.00 | 33 | 1003.5 |
| 20260508223503 | 63 | 116 | 3.0 | 9.0 | 0.00 | 0.00 | 0.00 | 30 | 1003.4 |
| 20260508222504 | 61 | 127 | 0.0 | 9.0 | 0.00 | 0.00 | 0.00 | 29 | 1003.4 |
| 20260508221502 | 62 | 59 | 4.0 | 12.0 | 0.00 | 0.00 | 0.00 | 29 | 1003.2 |
| 20260508221001 | 62 | 141 | 8.0 | 13.0 | 0.00 | 0.00 | 0.00 | 29 | 1003.5 |
| 20260508220501 | 62 | 65 | 0.0 | 13.0 | 0.00 | 0.00 | 0.00 | 30 | 1003.2 |
| 20260508220001 | 63 | 133 | 3.0 | 11.0 | 0.00 | 0.00 | 0.00 | 31 | 1003.2 |
| 20260508215500 | 63 | 171 | 2.0 | 9.0 | 0.00 | 0.00 | 0.00 | 31 | 1002.9 |
| 20260508215000 | 62 | 182 | 3.0 | 9.0 | 0.00 | 0.00 | 0.00 | 31 | 1003.2 |
| 20260508214501 | 62 | 194 | 3.0 | 9.0 | 0.00 | 0.00 | 0.00 | 29 | 1002.8 |
| 20260508214002 | 62 | 94 | 2.0 | 9.0 | 0.00 | 0.00 | 0.00 | 30 | 1003.1 |
| 20260508213503 | 63 | 168 | 3.0 | 11.0 | 0.00 | 0.00 | 0.00 | 31 | 1002.9 |
| 20260508213001 | 62 | 184 | 2.0 | 15.0 | 0.00 | 0.00 | 0.00 | 30 | 1003.0 |
| 20260508212501 | 62 | 111 | 5.0 | 15.0 | 0.00 | 0.00 | 0.00 | 29 | 1002.7 |
| 20260508212001 | 64 | 143 | 4.0 | 13.0 | 0.00 | 0.00 | 0.00 | 29 | 1002.9 |
| 20260508211003 | 64 | 148 | 2.0 | 11.0 | 0.00 | 0.00 | 0.00 | 31 | 1002.9 |
| 20260508210503 | 63 | 145 | 3.0 | 11.0 | 0.00 | 0.00 | 0.00 | 31 | 1002.8 |
| 20260508210001 | 63 | 146 | 5.0 | 11.0 | 0.00 | 0.00 | 0.00 | 29 | 1002.7 |
| 20260508205500 | 61 | 115 | 5.0 | 8.0 | 0.00 | 0.00 | 0.00 | 31 | 1002.7 |
| 20260508205002 | 63 | 174 | 0.0 | 13.0 | 0.00 | 0.00 | 0.00 | 30 | 1002.8 |
| 20260508204501 | 64 | 148 | 7.0 | 13.0 | 0.00 | 0.00 | 0.00 | 30 | 1002.5 |
| 20260508204003 | 64 | 115 | 7.0 | 13.0 | 0.00 | 0.00 | 0.00 | 30 | 1002.6 |
| 20260508203501 | 64 | 125 | 4.0 | 12.0 | 0.00 | 0.00 | 0.00 | 30 | 1002.3 |
| 20260508203002 | 63 | 127 | 2.0 | 12.0 | 0.00 | 0.00 | 0.00 | 30 | 1002.6 |
| 20260508202502 | 64 | 93 | 4.0 | 10.0 | 0.00 | 0.00 | 0.00 | 29 | 1002.5 |
| 20260508202001 | 64 | 106 | 5.0 | 14.0 | 0.00 | 0.00 | 0.00 | 29 | 1002.6 |
| 20260508201501 | 63 | 111 | 7.0 | 15.0 | 0.00 | 0.00 | 0.00 | 30 | 1002.5 |
| 20260508201002 | 63 | 159 | 2.0 | 15.0 | 0.00 | 0.00 | 0.00 | 32 | 1002.6 |
| 20260508200503 | 64 | 19 | 3.0 | 13.0 | 0.00 | 0.00 | 0.00 | 33 | 1002.6 |
| 20260508200001 | 63 | 144 | 4.0 | 16.0 | 0.00 | 0.00 | 0.00 | 32 | 1002.7 |
| 20260508194503 | 62 | 115 | 8.0 | 13.0 | 0.00 | 0.00 | 0.00 | 35 | 1002.8 |
| 20260508194001 | 62 | 154 | 2.0 | 13.0 | 0.00 | 0.00 | 0.00 | 34 | 1002.7 |
| 20260508193001 | 65 | 140 | 5.0 | 18.0 | 0.00 | 0.00 | 0.00 | 34 | 1002.2 |
| 20260508192500 | 65 | 133 | 3.0 | 13.0 | 0.00 | 0.00 | 0.00 | 34 | 1002.7 |
| 20260508191502 | 66 | 129 | 2.0 | 15.0 | 0.00 | 0.00 | 0.00 | 32 | 1002.8 |
| 20260508191003 | 63 | 153 | 4.0 | 15.0 | 0.00 | 0.00 | 0.00 | 32 | 1002.7 |
| 20260508190500 | 61 | 130 | 10.0 | 13.0 | 0.00 | 0.00 | 0.00 | 32 | 1002.8 |
| 20260508190001 | 60 | 80 | 5.0 | 9.0 | 0.00 | 0.00 | 0.00 | 30 | 1002.8 |
| 20260508185502 | 61 | 139 | 0.0 | 10.0 | 0.00 | 0.00 | 0.00 | 30 | 1002.9 |
| 20260508185002 | 61 | 135 | 2.0 | 12.0 | 0.00 | 0.00 | 0.00 | 29 | 1002.9 |
| 20260508184501 | 62 | 113 | 4.0 | 12.0 | 0.00 | 0.00 | 0.00 | 29 | 1003.1 |
| 20260508184001 | 60 | 108 | 6.0 | 9.0 | 0.00 | 0.00 | 0.00 | 30 | 1003.2 |
| 20260508183003 | 61 | 125 | 4.0 | 9.0 | 0.00 | 0.00 | 0.00 | 28 | 1003.1 |
| 20260508182500 | 62 | 120 | 0.0 | 12.0 | 0.00 | 0.00 | 0.00 | 28 | 1003.1 |
| 20260508181954 | 61 | 103 | 2.0 | 12.0 | 0.00 | 0.00 | 0.00 | 28 | 1003.1 |
| 20260508181454 | 61 | 99 | 3.0 | 12.0 | 0.00 | 0.00 | 0.00 | 28 | 1003.1 |
| 20260508180954 | 61 | 146 | 5.0 | 12.0 | 0.00 | 0.00 | 0.00 | 27 | 1003.2 |
| 20260508180456 | 63 | 90 | 3.0 | 12.0 | 0.00 | 0.00 | 0.00 | 26 | 1003.1 |
| 20260508174954 | 62 | 98 | 6.0 | 11.0 | 0.00 | 0.00 | 0.00 | 25 | 1003.4 |
| 20260508174455 | 62 | 125 | 4.0 | 9.0 | 0.00 | 0.00 | 0.00 | 26 | 1003.6 |
| 20260508173956 | 61 | 129 | 4.0 | 14.0 | 0.00 | 0.00 | 0.00 | 26 | 1003.5 |
| 20260508172954 | 62 | 72 | 2.0 | 10.0 | 0.00 | 0.00 | 0.00 | 28 | 1003.6 |
| 20260508171953 | 60 | 162 | 6.0 | 12.0 | 0.00 | 0.00 | 0.00 | 28 | 1003.9 |
| 20260508170951 | 61 | 99 | 5.0 | 9.0 | 0.00 | 0.00 | 0.00 | 28 | 1004.0 |
| 20260508170451 | 61 | 116 | 3.0 | 9.0 | 0.00 | 0.00 | 0.00 | 29 | 1004.0 |
| 20260508165442 | 60 | 95 | 3.0 | 10.0 | 0.00 | 0.00 | 0.00 | 28 | 1004.2 |
| 20260508164943 | 61 | 114 | 0.0 | 10.0 | 0.00 | 0.00 | 0.00 | 27 | 1004.3 |
| 20260508163932 | 63 | 122 | 3.0 | 10.0 | 0.00 | 0.00 | 0.00 | 25 | 1004.0 |
| 20260508163433 | 63 | 122 | 4.0 | 11.0 | 0.00 | 0.00 | 0.00 | 26 | 1004.1 |
| 20260508162432 | 60 | 101 | 0.0 | 9.0 | 0.00 | 0.00 | 0.00 | 30 | 1004.6 |
| 20260508161950 | 61 | 138 | 3.0 | 11.0 | 0.00 | 0.00 | 0.00 | 30 | 1004.6 |
| 20260508161433 | 61 | 94 | 2.0 | 11.0 | 0.00 | 0.00 | 0.00 | 29 | 1004.7 |
| 20260508160925 | 61 | 112 | 6.0 | 10.0 | 0.00 | 0.00 | 0.00 | 29 | 1004.6 |
| 20260508160423 | 61 | 162 | 2.0 | 10.0 | 0.00 | 0.00 | 0.00 | 30 | 1004.7 |
| 20260508155921 | 60 | 104 | 6.0 | 10.0 | 0.00 | 0.00 | 0.00 | 29 | 1004.5 |
| 20260508155422 | 60 | 114 | 4.0 | 10.0 | 0.00 | 0.00 | 0.00 | 28 | 1004.8 |
| 20260508154927 | 61 | 112 | 3.0 | 9.0 | 0.00 | 0.00 | 0.00 | 29 | 1004.7 |
| 20260508154407 | 61 | 90 | 0.0 | 7.0 | 0.00 | 0.00 | 0.00 | 27 | 1004.6 |
| 20260508153905 | 60 | 101 | 3.0 | 7.0 | 0.00 | 0.00 | 0.00 | 29 | 1004.8 |
| 20260508153406 | 60 | 104 | 3.0 | 8.0 | 0.00 | 0.00 | 0.00 | 29 | 1004.8 |
| 20260508152404 | 59 | 101 | 2.0 | 6.0 | 0.00 | 0.00 | 0.00 | 33 | 1005.1 |
| 20260508151903 | 59 | 22 | 0.0 | 12.0 | 0.00 | 0.00 | 0.00 | 33 | 1005.0 |
| 20260508151403 | 57 | 26 | 0.0 | 12.0 | 0.00 | 0.00 | 0.00 | 34 | 1005.0 |
| 20260508150901 | 57 | 102 | 4.0 | 10.0 | 0.00 | 0.00 | 0.00 | 34 | 1005.3 |
| 20260508150401 | 57 | 123 | 2.0 | 10.0 | 0.00 | 0.00 | 0.00 | 35 | 1005.4 |
| 20260508145901 | 57 | 112 | 2.0 | 8.0 | 0.00 | 0.00 | 0.00 | 35 | 1005.4 |
| 20260508145401 | 56 | 78 | 2.0 | 9.0 | 0.00 | 0.00 | 0.00 | 36 | 1005.4 |
| 20260508144400 | 55 | 74 | 1.0 | 6.0 | 0.00 | 0.00 | 0.00 | 38 | 1005.8 |
| 20260508143401 | 52 | 101 | 2.0 | 10.0 | 0.00 | 0.00 | 0.00 | 40 | 1005.7 |
| 20260508142901 | 52 | 90 | 4.0 | 6.0 | 0.00 | 0.00 | 0.00 | 42 | 1005.8 |
| 20260508142401 | 53 | 85 | 2.0 | 6.0 | 0.00 | 0.00 | 0.00 | 44 | 1005.6 |
| 20260508141901 | 51 | 36 | 2.0 | 6.0 | 0.00 | 0.00 | 0.00 | 44 | 1005.8 |
| 20260508141400 | 50 | 97 | 1.0 | 4.0 | 0.00 | 0.00 | 0.00 | 47 | 1005.9 |
| 20260508140902 | 47 | 106 | 2.0 | 7.0 | 0.00 | 0.00 | 0.00 | 48 | 1005.9 |
| 20260508140402 | 47 | 85 | 2.0 | 7.0 | 0.00 | 0.00 | 0.00 | 50 | 1006.1 |
| 20260508135401 | 46 | 79 | 2.0 | 4.0 | 0.00 | 0.00 | 0.00 | 50 | 1006.1 |
| 20260508134900 | 46 | 79 | 2.0 | 4.0 | 0.00 | 0.00 | 0.00 | 50 | 1006.3 |
| 20260508134400 | 46 | 86 | 2.0 | 4.0 | 0.00 | 0.00 | 0.00 | 52 | 1006.3 |
| 20260508133901 | 46 | 77 | 1.0 | 4.0 | 0.00 | 0.00 | 0.00 | 52 | 1006.8 |
| 20260508133401 | 45 | 63 | 1.0 | 4.0 | 0.00 | 0.00 | 0.00 | 53 | 1006.6 |
| 20260508132901 | 45 | 21 | 2.0 | 4.0 | 0.00 | 0.00 | 0.00 | 53 | 1006.6 |
| 20260508132400 | 44 | 73 | 2.0 | 3.0 | 0.00 | 0.00 | 0.00 | 57 | 1006.7 |
| 20260508131902 | 44 | 103 | 0.0 | 3.0 | 0.00 | 0.00 | 0.00 | 57 | 1006.6 |
| 20260508131400 | 43 | 117 | 2.0 | 3.0 | 0.00 | 0.00 | 0.00 | 58 | 1006.5 |
| 20260508130854 | 43 | 74 | 0.0 | 3.0 | 0.00 | 0.00 | 0.00 | 60 | 1006.8 |
| 20260508130356 | 42 | 82 | 1.0 | 4.0 | 0.00 | 0.00 | 0.00 | 60 | 1006.7 |
| 20260508124355 | 39 | 60 | 0.0 | 2.0 | 0.00 | 0.00 | 0.00 | 64 | 1006.6 |
| 20260508123853 | 38 | 90 | 0.0 | 2.0 | 0.00 | 0.00 | 0.00 | 63 | 1006.9 |
| 20260508123356 | 38 | 96 | 1.0 | 2.0 | 0.00 | 0.00 | 0.00 | 62 | 1006.9 |
| 20260508122354 | 37 | 84 | 0.0 | 2.0 | 0.00 | 0.00 | 0.00 | 65 | 1006.7 |
| 20260508121852 | 37 | 337 | 0.0 | 2.0 | 0.00 | 0.00 | 0.00 | 67 | 1006.7 |
| 20260508121353 | 37 | 90 | 0.0 | 2.0 | 0.00 | 0.00 | 0.00 | 66 | 1006.8 |
| 20260508120353 | 35 | 32 | 1.0 | 2.0 | 0.00 | 0.00 | 0.00 | 68 | 1006.6 |
| 20260508115849 | 35 | 66 | 0.0 | 2.0 | 0.00 | 0.00 | 0.00 | 69 | 1006.7 |
| 20260508115343 | 35 | 23 | 0.0 | 2.0 | 0.00 | 0.00 | 0.00 | 70 | 1006.7 |
| 20260508114844 | 34 | 90 | 0.0 | 1.0 | 0.00 | 0.00 | 0.00 | 70 | 1006.9 |
| 20260508113840 | 33 | 40 | 0.0 | 1.0 | 0.00 | 0.00 | 0.00 | 71 | 1006.9 |
| 20260508113342 | 33 | 75 | 0.0 | 2.0 | 0.00 | 0.00 | 0.00 | 72 | 1006.9 |
| 20260508112841 | 32 | 66 | 0.0 | 2.0 | 0.00 | 0.00 | 0.00 | 72 | 1006.9 |
| 20260508111840 | 31 | 66 | 0.0 | 2.0 | 0.00 | 0.00 | 0.00 | 74 | 1006.7 |
| 20260508110340 | 31 | 23 | 0.0 | 2.0 | 0.00 | 0.00 | 0.00 | 74 | 1006.6 |
| 20260508105838 | 31 | 77 | 0.0 | 1.0 | 0.00 | 0.00 | 0.00 | 74 | 1006.8 |
| 20260508105337 | 31 | 82 | 0.0 | 1.0 | 0.00 | 0.00 | 0.00 | 73 | 1006.9 |
| 20260508104839 | 31 | 18 | 0.0 | 1.0 | 0.00 | 0.00 | 0.00 | 73 | 1006.9 |
| 20260508104338 | 30 | 29 | 0.0 | 1.0 | 0.00 | 0.00 | 0.00 | 73 | 1006.8 |
| 20260508103839 | 31 | 29 | 0.0 | 1.0 | 0.00 | 0.00 | 0.00 | 73 | 1006.9 |
| 20260508103338 | 30 | 66 | 0.0 | 1.0 | 0.00 | 0.00 | 0.00 | 73 | 1007.0 |
| 20260508102838 | 30 | 66 | 0.0 | 1.0 | 0.00 | 0.00 | 0.00 | 74 | 1007.2 |
| 20260508102337 | 30 | 90 | 0.0 | 2.0 | 0.00 | 0.00 | 0.00 | 74 | 1007.0 |
| 20260508101343 | 30 | 49 | 0.0 | 1.0 | 0.00 | 0.00 | 0.00 | 74 | 1007.1 |
| 20260508100837 | 30 | 29 | 0.0 | 2.0 | 0.00 | 0.00 | 0.00 | 73 | 1007.0 |
| 20260508100331 | 30 | 7 | 0.0 | 2.0 | 0.00 | 0.00 | 0.00 | 73 | 1007.1 |
| 20260508095331 | 29 | 53 | 0.0 | 2.0 | 0.00 | 0.00 | 0.00 | 75 | 1007.1 |
| 20260508094833 | 29 | 37 | 0.0 | 2.0 | 0.00 | 0.00 | 0.00 | 75 | 1007.1 |
| 20260508093330 | 28 | 32 | 1.0 | 2.0 | 0.00 | 0.00 | 0.00 | 76 | 1007.2 |
| 20260508092829 | 28 | 33 | 0.0 | 2.0 | 0.00 | 0.00 | 0.00 | 76 | 1007.2 |
| 20260508092329 | 28 | 32 | 1.0 | 2.0 | 0.00 | 0.00 | 0.00 | 77 | 1007.3 |
| 20260508091830 | 28 | 82 | 0.0 | 1.0 | 0.00 | 0.00 | 0.00 | 77 | 1007.6 |
| 20260508091330 | 28 | 60 | 0.0 | 2.0 | 0.00 | 0.00 | 0.00 | 77 | 1007.5 |
| 20260508090829 | 28 | 7 | 0.0 | 2.0 | 0.00 | 0.00 | 0.00 | 77 | 1007.5 |
| 20260508090331 | 28 | 36 | 0.0 | 2.0 | 0.00 | 0.00 | 0.00 | 77 | 1007.4 |
| 20260508085829 | 28 | 23 | 1.0 | 2.0 | 0.00 | 0.00 | 0.00 | 77 | 1007.7 |
| 20260508085328 | 28 | 114 | 1.0 | 3.0 | 0.00 | 0.00 | 0.00 | 77 | 1007.6 |
| 20260508084830 | 29 | 18 | 1.0 | 3.0 | 0.00 | 0.00 | 0.00 | 76 | 1007.6 |
| 20260508084328 | 28 | 60 | 0.0 | 2.0 | 0.00 | 0.00 | 0.00 | 77 | 1007.6 |
| 20260508083827 | 28 | 23 | 0.0 | 2.0 | 0.00 | 0.00 | 0.00 | 76 | 1007.6 |
| 20260508082827 | 28 | 120 | 0.0 | 2.0 | 0.00 | 0.00 | 0.00 | 76 | 1007.6 |
| 20260508082326 | 28 | 66 | 0.0 | 2.0 | 0.00 | 0.00 | 0.00 | 76 | 1007.6 |
| 20260508081828 | 29 | 114 | 0.0 | 1.0 | 0.00 | 0.00 | 0.00 | 75 | 1007.9 |
| 20260508081327 | 28 | 71 | 0.0 | 2.0 | 0.00 | 0.00 | 0.00 | 77 | 1007.9 |
| 20260508080332 | 28 | 98 | 0.0 | 1.0 | 0.00 | 0.00 | 0.00 | 78 | 1007.8 |
| 20260508075825 | 29 | 82 | 0.0 | 1.0 | 0.00 | 0.00 | 0.00 | 76 | 1007.7 |
| 20260508075327 | 29 | 75 | 0.0 | 1.0 | 0.00 | 0.00 | 0.00 | 75 | 1007.8 |
| 20260508074826 | 29 | 90 | 0.0 | 2.0 | 0.00 | 0.00 | 0.00 | 75 | 1007.6 |
| 20260508074327 | 29 | 75 | 0.0 | 2.0 | 0.00 | 0.00 | 0.00 | 76 | 1007.6 |
| 20260508073827 | 28 | 90 | 0.0 | 1.0 | 0.00 | 0.00 | 0.00 | 79 | 1007.8 |
| 20260508073325 | 28 | 120 | 0.0 | 2.0 | 0.00 | 0.00 | 0.00 | 78 | 1007.7 |
| 20260508072325 | 28 | 60 | 1.0 | 2.0 | 0.00 | 0.00 | 0.00 | 79 | 1007.8 |
| 20260508071827 | 28 | 75 | 0.0 | 1.0 | 0.00 | 0.00 | 0.00 | 79 | 1007.9 |
| 20260508071325 | 28 | 82 | 0.0 | 1.0 | 0.00 | 0.00 | 0.00 | 78 | 1007.9 |
| 20260508070826 | 28 | 69 | 0.0 | 1.0 | 0.00 | 0.00 | 0.00 | 76 | 1007.7 |
| 20260508065825 | 28 | 66 | 0.0 | 1.0 | 0.00 | 0.00 | 0.00 | 76 | 1008.0 |
| 20260508065325 | 28 | 60 | 0.0 | 2.0 | 0.00 | 0.00 | 0.00 | 75 | 1008.1 |
| 20260508064824 | 29 | 84 | 1.0 | 2.0 | 0.00 | 0.00 | 0.00 | 75 | 1007.8 |
| 20260508064324 | 29 | 78 | 0.0 | 2.0 | 0.00 | 0.00 | 0.00 | 74 | 1008.4 |
| 20260508063816 | 29 | 66 | 1.0 | 2.0 | 0.00 | 0.00 | 0.00 | 75 | 1008.0 |
| 20260508063315 | 29 | 75 | 0.0 | 2.0 | 0.00 | 0.00 | 0.00 | 75 | 1008.1 |
| 20260508062814 | 29 | 54 | 0.0 | 2.0 | 0.00 | 0.00 | 0.00 | 75 | 1008.1 |
| 20260508062316 | 29 | 60 | 0.0 | 2.0 | 0.00 | 0.00 | 0.00 | 75 | 1008.2 |
| 20260508061814 | 30 | 57 | 1.0 | 2.0 | 0.00 | 0.00 | 0.00 | 72 | 1008.3 |
| 20260508061314 | 30 | 75 | 1.0 | 2.0 | 0.00 | 0.00 | 0.00 | 71 | 1008.3 |
| 20260508060814 | 30 | 90 | 1.0 | 2.0 | 0.00 | 0.00 | 0.00 | 72 | 1008.2 |
| 20260508055805 | 29 | 26 | 0.0 | 2.0 | 0.00 | 0.00 | 0.00 | 72 | 1008.3 |
| 20260508055306 | 29 | 20 | 1.0 | 2.0 | 0.00 | 0.00 | 0.00 | 72 | 1008.1 |
| 20260508054804 | 29 | 66 | 1.0 | 2.0 | 0.00 | 0.00 | 0.00 | 73 | 1008.2 |
| 20260508054301 | 29 | 26 | 1.0 | 2.0 | 0.00 | 0.00 | 0.00 | 72 | 1008.5 |
| 20260508053801 | 29 | 66 | 0.0 | 2.0 | 0.00 | 0.00 | 0.00 | 75 | 1008.3 |
| 20260508053300 | 29 | 57 | 1.0 | 2.0 | 0.00 | 0.00 | 0.00 | 72 | 1008.8 |
| 20260508052802 | 29 | 36 | 2.0 | 2.0 | 0.00 | 0.00 | 0.00 | 73 | 1008.5 |
| 20260508052301 | 29 | 26 | 0.0 | 2.0 | 0.00 | 0.00 | 0.00 | 77 | 1008.5 |
| 20260508051301 | 29 | 18 | 1.0 | 2.0 | 0.00 | 0.00 | 0.00 | 72 | 1008.5 |
| 20260508050802 | 29 | 69 | 0.0 | 2.0 | 0.00 | 0.00 | 0.00 | 71 | 1009.1 |
| 20260508050300 | 30 | 80 | 2.0 | 2.0 | 0.00 | 0.00 | 0.00 | 69 | 1008.9 |
| 20260508045803 | 30 | 26 | 1.0 | 1.0 | 0.00 | 0.00 | 0.00 | 70 | 1008.6 |
| 20260508045301 | 29 | 23 | 0.0 | 0.0 | 0.00 | 0.00 | 0.00 | 71 | 1008.9 |
| 20260508044801 | 30 | 23 | 0.0 | 0.0 | 0.00 | 0.00 | 0.00 | 70 | 1009.1 |
| 20260508044300 | 30 | 23 | 0.0 | 0.0 | 0.00 | 0.00 | 0.00 | 69 | 1009.0 |